Flag for U.S.A. Weather past 2 weeks in Portland, Oregon, U.S.A.

Now
57 °F

Overcast.


Feels Like: 54 °F
Forecast: 55 / 60 °F
Wind: 12 mph from East

Location: Portland International Airport

Current Time: Oct 21, 2014 at 10:07:49 PM

Latest Report: Oct 21, 2014 at 8:53 PM


Visibility: 10 mi

Pressure: 29.88 "Hg

Humidity: 83%

Dew point: 52 °F

Location of PortlandLocation

Historic Weather in Portland — Graph

°F

Portland temperature yesterday

Maximum temperature yesterday: 63 °F (at 12:53 AM)
Minimum temperature yesterday: 54 °F (at 10:53 PM)
Average temperature yesterday: 59 °F

Past Weeks' High & Low Weather Summary

 TemperatureHumidityPressure
High82 °F (Oct 7, 4:53 PM)100% (Oct 7, 6:53 AM)30.29 "Hg (Oct 7, 6:53 AM)
Low50 °F (Oct 13, 4:53 AM)37% (Oct 13, 3:53 PM)29.54 "Hg (Oct 15, 1:53 AM)
Average61 °F81%29.92 "Hg
* Reported Oct 6 8:53 PM — Oct 21 8:53 PM, Portland, Weather by CustomWeather, © 2014

Note: Actual official high and low records may vary slightly from our data, if they occured in-between our weather recording intervals... More about our weather records

Advertising

Portland weather history for previous 24 hours

 ConditionsComfort  
Time TempWeatherWind HumidityBarometerVisibility
8:53 PM
Oct 21
57 °FOvercast.12 mph83%29.88 "Hg10 mi
7:53 PM58 °FOvercast.13 mph81%29.90 "Hg10 mi
6:53 PM59 °FMostly cloudy.12 mph75%29.92 "Hg10 mi
5:53 PM60 °FCloudy.10 mph69%29.94 "Hg10 mi
4:53 PM60 °FMostly cloudy.10 mph69%29.95 "Hg10 mi
3:53 PM62 °FBroken clouds.10 mph70%29.96 "Hg10 mi
2:53 PM62 °FPartly sunny.14 mph67%29.97 "Hg10 mi
1:53 PM60 °FMore clouds than sun.14 mph72%29.98 "Hg10 mi
12:53 PM61 °FMostly cloudy.12 mph70%29.99 "Hg10 mi
11:53 AM58 °FBroken clouds.8 mph81%30.01 "Hg10 mi
10:53 AM57 °FMore clouds than sun.12 mph81%30.00 "Hg10 mi
9:53 AM57 °FBroken clouds.16 mph78%29.99 "Hg10 mi
8:53 AM56 °FPartly sunny.15 mph81%29.97 "Hg10 mi
7:53 AM54 °FPartly cloudy.7 mph90%29.97 "Hg10 mi
6:53 AM54 °FPartly cloudy.15 mph90%29.94 "Hg10 mi
5:53 AM55 °FMostly cloudy.14 mph87%29.93 "Hg10 mi
4:53 AM56 °FMostly cloudy.12 mph84%29.91 "Hg10 mi
3:53 AM56 °FPassing clouds.13 mph84%29.89 "Hg10 mi
2:53 AM56 °FOvercast.12 mph87%29.88 "Hg10 mi
1:53 AM56 °FPassing clouds.6 mph87%29.88 "Hg10 mi
12:53 AM56 °FOvercast.9 mph87%29.88 "Hg10 mi
11:53 PM
Oct 20
55 °FPassing clouds.7 mph90%29.87 "Hg10 mi
10:53 PM54 °FPassing clouds.8 mph93%29.86 "Hg10 mi
Weather by CustomWeather, © 2014

See weather overviewHow to use our weather pages